• In Portugal
  • List of Countries
  • For 7 days
  • Water Temperature
  • Satellite Maps
  • Weather Map
  • Weather Widgets
  • user-avatar
    Login

    Hourly Weather Göynük

    Today, 20 July, Friday

    Time Temperature Precipitation Wind Pressure Humidity
    00:00 +28°C° 0 mm 1 mps 742 mmHg 66%
    01:00 +28°C° 0 mm 1 mps 742 mmHg 64%
    02:00 +28°C° 0 mm 1 mps 742 mmHg 62%
    03:00 +27°C° 0 mm 1 mps 742 mmHg 62%
    04:00 +27°C° 0 mm 1 mps 742 mmHg 61%
    05:00 +27°C° 0 mm 1 mps 742 mmHg 60%
    06:00 +28°C° 0 mm 1 mps 742 mmHg 56%
    07:00 +30°C° 0 mm 1 mps 742 mmHg 52%
    08:00 +32°C° 0 mm 1 mps 742 mmHg 49%
    09:00 +33°C° 0 mm 1 mps 742 mmHg 46%
    10:00 +35°C° 0 mm 2 mps 743 mmHg 43%
    11:00 +35°C° 0 mm 2 mps 743 mmHg 41%
    12:00 +35°C° 0.3 mm 2 mps 743 mmHg 42%
    13:00 +35°C° 0.3 mm 3 mps 742 mmHg 43%
    14:00 +36°C° 0 mm 3 mps 743 mmHg 40%
    15:00 +35°C° 0.2 mm 3 mps 743 mmHg 42%
    16:00 +35°C° 0.2 mm 3 mps 743 mmHg 43%
    17:00 +35°C° 0.2 mm 3 mps 743 mmHg 44%
    18:00 +34°C° 0.1 mm 2 mps 743 mmHg 49%
    19:00 +31°C° 0.1 mm 2 mps 743 mmHg 55%
    20:00 +30°C° 0.1 mm 1 mps 743 mmHg 60%
    21:00 +30°C° 0 mm 1 mps 743 mmHg 61%
    22:00 +29°C° 0 mm 1 mps 743 mmHg 61%
    23:00 +29°C° 0 mm 1 mps 743 mmHg 62%

    Tomorrow, 21 July, Saturday

    Time Temperature Precipitation Wind Pressure Humidity
    00:00 +29°C° 0 mm 1 mps 743 mmHg 61%
    01:00 +29°C° 0 mm 1 mps 743 mmHg 59%
    02:00 +29°C° 0 mm 1 mps 743 mmHg 58%
    03:00 +28°C° 0 mm 1 mps 743 mmHg 57%
    04:00 +28°C° 0 mm 1 mps 743 mmHg 57%
    05:00 +28°C° 0 mm 1 mps 743 mmHg 56%
    06:00 +30°C° 0 mm 1 mps 744 mmHg 52%
    07:00 +31°C° 0 mm 1 mps 744 mmHg 48%
    08:00 +33°C° 0 mm 1 mps 744 mmHg 44%
    09:00 +35°C° 0 mm 2 mps 744 mmHg 40%
    10:00 +36°C° 0 mm 2 mps 744 mmHg 37%
    11:00 +37°C° 0 mm 2 mps 744 mmHg 34%
    12:00 +38°C° 0 mm 3 mps 744 mmHg 34%
    13:00 +38°C° 0 mm 3 mps 744 mmHg 33%
    14:00 +40°C° 0 mm 4 mps 743 mmHg 32%
    15:00 +38°C° 0 mm 4 mps 743 mmHg 34%
    16:00 +38°C° 0 mm 4 mps 743 mmHg 35%
    17:00 +37°C° 0 mm 4 mps 743 mmHg 36%
    18:00 +35°C° 0 mm 3 mps 743 mmHg 41%
    19:00 +34°C° 0 mm 2 mps 743 mmHg 47%
    20:00 +31°C° 0 mm 2 mps 743 mmHg 52%
    21:00 +31°C° 0 mm 2 mps 744 mmHg 51%
    22:00 +31°C° 0 mm 2 mps 744 mmHg 50%
    23:00 +31°C° 0 mm 2 mps 744 mmHg 48%

    Day after tomorrow, 22 July, Sunday

    Time Temperature Precipitation Wind Pressure Humidity
    00:00 +30°C° 0 mm 2 mps 744 mmHg 47%
    01:00 +30°C° 0 mm 2 mps 744 mmHg 45%
    02:00 +30°C° 0 mm 2 mps 744 mmHg 43%
    03:00 +30°C° 0 mm 2 mps 744 mmHg 43%
    04:00 +30°C° 0 mm 3 mps 744 mmHg 44%
    05:00 +29°C° 0 mm 3 mps 743 mmHg 44%
    06:00 +31°C° 0 mm 3 mps 744 mmHg 42%
    07:00 +34°C° 0 mm 3 mps 744 mmHg 39%
    08:00 +36°C° 0 mm 3 mps 744 mmHg 37%
    09:00 +37°C° 0 mm 3 mps 744 mmHg 35%
    10:00 +38°C° 0 mm 3 mps 743 mmHg 32%
    11:00 +39°C° 0 mm 3 mps 743 mmHg 29%
    12:00 +41°C° 0 mm 4 mps 743 mmHg 27%
    13:00 +41°C° 0 mm 4 mps 743 mmHg 26%
    14:00 +42°C° 0 mm 5 mps 742 mmHg 24%
    15:00 +41°C° 0 mm 5 mps 742 mmHg 24%
    16:00 +41°C° 0 mm 5 mps 742 mmHg 25%
    17:00 +41°C° 0 mm 5 mps 742 mmHg 25%
    18:00 +39°C° 0 mm 5 mps 742 mmHg 28%
    19:00 +36°C° 0 mm 4 mps 742 mmHg 30%
    20:00 +35°C° 0 mm 3 mps 743 mmHg 33%
    21:00 +34°C° 0 mm 3 mps 743 mmHg 33%
    22:00 +34°C° 0 mm 3 mps 743 mmHg 34%
    23:00 +33°C° 0 mm 3 mps 743 mmHg 34%

    23 July, Monday

    Time Temperature Precipitation Wind Pressure Humidity
    00:00 +33°C° 0 mm 3 mps 743 mmHg 36%
    01:00 +32°C° 0 mm 4 mps 743 mmHg 38%
    02:00 +30°C° 0 mm 4 mps 743 mmHg 40%
    03:00 +30°C° 0 mm 4 mps 743 mmHg 42%
    04:00 +30°C° 0 mm 4 mps 743 mmHg 44%
    05:00 +29°C° 0 mm 4 mps 743 mmHg 46%
    06:00 +32°C° 0 mm 4 mps 743 mmHg 41%
    07:00 +34°C° 0 mm 4 mps 743 mmHg 36%
    08:00 +36°C° 0 mm 4 mps 743 mmHg 30%
    09:00 +37°C° 0 mm 4 mps 743 mmHg 28%
    10:00 +38°C° 0 mm 3 mps 743 mmHg 25%
    11:00 +39°C° 0 mm 3 mps 743 mmHg 22%
    12:00 +40°C° 0 mm 3 mps 743 mmHg 22%
    13:00 +40°C° 0 mm 3 mps 742 mmHg 21%
    14:00 +42°C° 0 mm 4 mps 742 mmHg 21%
    15:00 +41°C° 0 mm 4 mps 742 mmHg 22%
    16:00 +41°C° 0 mm 4 mps 741 mmHg 23%
    17:00 +41°C° 0 mm 5 mps 741 mmHg 24%
    18:00 +38°C° 0 mm 4 mps 742 mmHg 27%
    19:00 +36°C° 0 mm 4 mps 742 mmHg 31%
    20:00 +34°C° 0 mm 3 mps 742 mmHg 34%
    21:00 +34°C° 0 mm 3 mps 742 mmHg 34%
    22:00 +34°C° 0 mm 2 mps 742 mmHg 33%
    23:00 +32°C° 0 mm 2 mps 742 mmHg 33%

    24 July, Tuesday

    Time Temperature Precipitation Wind Pressure Humidity
    00:00 +32°C° 0 mm 2 mps 742 mmHg 34%
    01:00 +31°C° 0 mm 2 mps 742 mmHg 35%
    02:00 +31°C° 0 mm 1 mps 741 mmHg 36%
    03:00 +30°C° 0 mm 1 mps 741 mmHg 37%
    04:00 +30°C° 0 mm 1 mps 741 mmHg 37%
    05:00 +30°C° 0 mm 1 mps 741 mmHg 38%
    06:00 +32°C° 0 mm 1 mps 742 mmHg 35%
    07:00 +34°C° 0 mm 1 mps 742 mmHg 31%
    08:00 +36°C° 0 mm 1 mps 742 mmHg 28%
    09:00 +38°C° 0 mm 2 mps 742 mmHg 28%
    10:00 +39°C° 0 mm 2 mps 742 mmHg 27%
    11:00 +40°C° 0 mm 3 mps 742 mmHg 26%
    12:00 +41°C° 0 mm 4 mps 741 mmHg 27%
    13:00 +41°C° 0 mm 4 mps 741 mmHg 28%
    14:00 +41°C° 0 mm 5 mps 741 mmHg 29%
    15:00 +40°C° 0 mm 5 mps 741 mmHg 31%
    16:00 +39°C° 0 mm 5 mps 741 mmHg 34%
    17:00 +37°C° 0 mm 5 mps 741 mmHg 36%
    18:00 +36°C° 0 mm 4 mps 741 mmHg 46%
    19:00 +34°C° 0 mm 3 mps 741 mmHg 55%
    20:00 +31°C° 0 mm 3 mps 742 mmHg 65%
    21:00 +30°C° 0 mm 2 mps 742 mmHg 69%
    22:00 +29°C° 0 mm 2 mps 742 mmHg 72%
    23:00 +29°C° 0 mm 2 mps 742 mmHg 76%

    25 July, Wednesday

    Time Temperature Precipitation Wind Pressure Humidity
    00:00 +28°C° 0 mm 2 mps 742 mmHg 78%
    01:00 +28°C° 0 mm 2 mps 742 mmHg 79%
    02:00 +28°C° 0 mm 2 mps 741 mmHg 80%
    03:00 +27°C° 0 mm 2 mps 742 mmHg 81%
    04:00 +27°C° 0 mm 1 mps 742 mmHg 82%
    05:00 +27°C° 0 mm 1 mps 742 mmHg 82%
    06:00 +28°C° 0 mm 1 mps 742 mmHg 76%
    07:00 +29°C° 0 mm 1 mps 742 mmHg 70%
    08:00 +31°C° 0 mm 1 mps 742 mmHg 63%
    09:00 +32°C° 0 mm 2 mps 742 mmHg 58%
    10:00 +34°C° 0 mm 2 mps 742 mmHg 53%
    11:00 +35°C° 0 mm 3 mps 742 mmHg 49%
    12:00 +35°C° 0.1 mm 3 mps 742 mmHg 48%
    13:00 +35°C° 0.1 mm 3 mps 742 mmHg 47%
    14:00 +36°C° 0.1 mm 4 mps 742 mmHg 46%
    15:00 +35°C° 0.2 mm 3 mps 742 mmHg 48%
    16:00 +35°C° 0.2 mm 3 mps 742 mmHg 51%
    17:00 +34°C° 0.2 mm 3 mps 742 mmHg 53%
    18:00 +32°C° 0.3 mm 2 mps 742 mmHg 59%
    19:00 +30°C° 0.3 mm 2 mps 742 mmHg 66%
    20:00 +29°C° 0.3 mm 1 mps 742 mmHg 73%
    21:00 +29°C° 0.1 mm 1 mps 743 mmHg 74%
    22:00 +28°C° 0.1 mm 1 mps 743 mmHg 76%
    23:00 +28°C° 0.1 mm 1 mps 743 mmHg 78%
    Show more